x

Buoy B01 - Western Maine Shelf (44030) Wave Buoy

3:04 - Fri 27th Mar 2015 All times are EDT. -4 hours from GMT.

  • Sig Wave height 3.9ft
  • Peak Period 8s
  • Wind
    4mph, 7mph gusts
  • Sea Temp 37°f
  • Aire Temp 38°f
  • Sea Pressure 1002.6mb
  • Buoy B01 - Western Maine Shelf
  • Buoy B01 - Western Maine Shelf

More Historic Weather Station data

Upgrade to MSW Pro to gain access to the past 30 days of data for over 8000 Wavebouys and Weather Stations around the globe.

Join Pro

Comparision Forecast

View Surf forecast
   
vie 03/27 3:04 4ft 8s 4 7 mph 1002.6mb 37f 38f
2:04 3.5ft 8s 7
mph
1003mb 37f 38f
1:04 3ft 6s 13 16 mph 1002.4mb 38f 39f
12:04 2.5ft 5s 9
mph
1003.4mb 38f 39f
jue 03/26 11:04 2.5ft 6s 9
mph
1003.5mb 38f 39f
10:04 2.5ft 5s 11 13 mph 1004.4mb 38f 39f
9:04 2.5ft 6s 4
mph
1003.3mb 38f 39f
8:04 2.5ft 5s 4
mph
1002.8mb 38f 40f
7:04 2.5ft 5s 2
mph
1003mb 38f 41f
6:04 2.5ft 6s 7
mph
1003mb 38f 40f
5:04 2.5ft 5s 4
mph
1003.1mb 38f 39f
4:04 2.5ft 6s 7 11 mph 1005.2mb 38f 40f
3:04 2.5ft 5s 9 11 mph 1004.4mb 38f 40f
2:04 3ft 5s 7
mph
1006.1mb 38f 40f
1:04 3ft 6s 7 9 mph 1007.7mb 38f 40f
12:04 3ft 5s 9 11 mph 1009.7mb 37f 40f
11:04 3ft 6s 13
mph
1010.7mb 37f 40f
10:04 3ft 5s 9 11 mph 1011.8mb 37f 40f
9:04 3ft 6s 11 16 mph 1012.1mb 37f 39f
8:04 3.5ft 5s 9
mph
1012.1mb 37f 38f
7:04 3.5ft 5s 11
mph
1012.5mb 37f 38f
6:04 3.5ft 5s 11 13 mph 1012.7mb 37f 37f
5:04 3.5ft 5s 7 9 mph 1013.6mb 37f 37f
4:04 3.5ft 6s 11 13 mph 1014.3mb 37f 37f
3:04 3.5ft 5s 16
mph
1015.6mb 37f 37f
2:04 4.5ft 5s 16 18 mph 1016.9mb 37f 37f
1:04 4.5ft 5s 20 22 mph 1018.1mb 37f 37f
12:04 4.5ft 5s 22 27 mph 1019.2mb 37f 37f
mié 03/25 11:04 4.5ft 5s 20 25 mph 1020.2mb 37f 37f
10:04 4.5ft 5s 20 25 mph 1021.3mb 37f 37f
9:04 4ft 5s 25 29 mph 1022mb 37f 38f
8:04 4ft 5s 20 25 mph 1021.5mb 37f 39f
7:04 3.5ft 4s 20 25 mph 1021.8mb 37f 39f
6:04 2.5ft 4s 20 25 mph 1022.6mb 37f 39f
5:04 2ft 3s 16 20 mph 1023.5mb 37f 38f
4:04 1.6ft 3s 16 18 mph 1024.2mb 37f 38f
3:04 1.3ft 2s 13 16 mph 1025.2mb 38f 37f
2:04 1ft 4s 11 13 mph 1026.1mb 38f 37f
1:04 1ft 8s 9
mph
1027.5mb 38f 36f
12:04 0.7ft  -  4 7 mph 1028.1mb 39f 35f
11:04 1ft 4s 2
mph
1028.8mb 37f 35f
10:04 1ft 4s 2 4 mph 1028.3mb 37f 35f
9:04 1ft 4s 2 4 mph 1028.1mb 37f 35f
8:04 1ft 11s 4 7 mph 1028.5mb 37f 33f
7:04 0.7ft  -  4 7 mph 1027.8mb 37f 34f
6:04 1ft 4s 4
mph
1027.2mb 37f 33f
5:04 1ft 4s 4 7 mph 1026.4mb 37f 34f
4:04 1ft 4s 7
mph
1026mb 37f 34f
3:04 1ft 4s 7 9 mph 1025.8mb 37f 34f
2:04 1.3ft 4s 9
mph
1025.9mb 37f 34f
1:04 1.6ft 4s 9 11 mph 1025.6mb 37f 34f
12:04 2ft 4s 11 13 mph 1025.4mb 37f 34f
mar 03/24 11:04 2ft 4s 13 16 mph 1025.3mb 37f 35f
10:04 2.5ft 4s 16 20 mph 1025.1mb 37f 35f
9:04 2ft 4s 16
mph
1025.3mb 37f 35f
8:04 1.6ft 4s 13
mph
1024.8mb 37f 35f
7:04 2ft 3s 13 16 mph 1024.3mb 37f 34f
6:04 1.3ft 3s 13 16 mph 1023.8mb 37f 35f
5:04 1.3ft 11s 11 13 mph 1023.5mb 37f 33f
4:04 1ft 2s 11 13 mph 1023.5mb 38f 31f
3:04 1ft 8s 9 11 mph 1023.7mb 38f 31f
2:04 1ft 5s 7 9 mph 1024.4mb 38f 29f
1:04 1ft 3s 4 7 mph 1025.1mb 38f 29f
12:04 1.3ft 8s 2
mph
1025.5mb 37f 28f
11:04 1.3ft 4s 4 7 mph 1026.1mb 37f 26f
10:04 1.3ft 3s 9 11 mph 1026.2mb 37f 26f
9:04 1.3ft 4s 7 9 mph 1025.9mb 37f 25f
8:04 1.3ft 4s 9 11 mph 1025.4mb 37f 24f
7:04 1.6ft 3s 9 11 mph 1024.8mb 37f 23f
6:04 1.6ft 4s 9 11 mph 1024.3mb 37f 23f
5:04 2ft 4s 9 11 mph 1023.8mb 37f 23f
4:04 2.5ft 4s 13 16 mph 1022.8mb 37f 24f
3:04 2.5ft 4s 13 16 mph 1022.8mb 37f 24f
2:04 3ft 4s 16 20 mph 1022.6mb 37f 25f
1:04 3ft 4s 18 22 mph 1022.2mb 37f 25f
12:04 3.5ft 5s 20 22 mph 1021.9mb 37f 26f
lun 03/23 11:04 2ft 3s 18 20 mph 1021.9mb 37f 26f
10:04 2ft 3s 16 18 mph 1021.4mb 37f 27f
9:04 2ft 3s 18 20 mph 1020.5mb 37f 28f
8:04 2.5ft 4s 22 29 mph 1019.1mb 37f 29f
7:04 2.5ft 3s 22 27 mph 1018mb 37f 30f
6:04 2.5ft 3s 20 25 mph 1017.2mb 37f 31f
5:04 2.5ft 3s 18 22 mph 1015.9mb 37f 30f
4:04 2.5ft 3s 18 22 mph 1015.6mb 37f 28f
3:04 2.5ft 3s 22 29 mph 1015.6mb 37f 27f
2:04 3.5ft 4s 22 29 mph 1015.8mb 37f 25f
1:04 3.5ft 4s 20 25 mph 1016.4mb 37f 23f
12:04 3.5ft 4s 25 29 mph 1016.3mb 37f 20f
11:04 3.5ft 4s 25 31 mph 1016.6mb 37f 18f
10:04 4ft 4s 27 36 mph 1016.9mb 37f 17f
9:04 4.5ft 4s 29 36 mph 1017mb 37f 16f